FW1946 Weather Reports


time (UTC)temp
C
wind
direction
speed
KPH
gust
KPH
rain 1hr
cm
rain 24hr
cm
rain mn
cm
humidity
%
barometer
mb
20260503184535 25 332 1.6 8.0 0.00 0.00 0.00 47 1013.3
20260503183107 24 347 1.6 8.0 0.00 0.00 0.00 49 1013.5
20260503181529 23 348 1.6 8.0 0.00 0.00 0.00 50 1013.7
20260503174536 22 326 1.6 6.4 0.00 0.00 0.00 53 1014.0
20260503173036 21 339 1.6 4.8 0.00 0.00 0.00 56 1014.2
20260503171530 21 346 1.6 6.4 0.00 0.00 0.00 59 1014.3
20260503071642 12 157 0.0 0.0 0.00 0.00 0.00 90 1014.4
20260503054538 13 337 0.0 0.0 0.00 0.00 0.00 85 1014.1
20260503053035 14 337 0.0 0.0 0.00 0.00 0.00 84 1014.3
20260503051536 15 337 0.0 0.0 0.00 0.00 0.00 79 1013.9
20260503043032 16 337 0.0 1.6 0.00 0.00 0.00 79 1013.8
20260503041540 15 337 1.6 4.8 0.00 0.00 0.00 79 1013.6
20260503040042 16 337 0.0 1.6 0.00 0.00 0.00 77 1013.3
20260503034538 16 337 0.0 0.0 0.00 0.00 0.00 75 1013.0
20260503033036 17 337 0.0 0.0 0.00 0.00 0.00 72 1012.6
20260503031533 18 337 0.0 3.2 0.00 0.00 0.00 70 1012.2
20260503030039 18 337 0.0 4.8 0.00 0.00 0.00 69 1012.0
20260503024536 18 337 0.0 1.6 0.00 0.00 0.00 67 1011.8
20260503023037 20 337 0.0 3.2 0.00 0.00 0.00 65 1011.7
20260503021532 20 337 0.0 3.2 0.00 0.00 0.00 64 1011.6
20260503020039 20 355 0.0 3.2 0.00 0.00 0.00 64 1011.4
20260503014538 21 337 0.0 3.2 0.00 0.00 0.00 63 1011.4
20260503013031 21 337 0.0 0.0 0.00 0.00 0.00 62 1011.4
20260503010037 22 337 0.0 3.2 0.00 0.00 0.00 59 1011.4
20260503004530 23 337 0.0 3.2 0.00 0.00 0.00 56 1011.4
20260503003029 23 337 0.0 3.2 0.00 0.00 0.00 54 1011.3
20260503001608 23 344 1.6 6.4 0.00 0.00 0.00 54 1011.4
20260502233038 24 3 3.2 6.4 0.00 0.00 0.00 55 1012.0
20260502230158 24 29 1.6 6.4 0.00 0.00 0.00 56 1012.2
20260502224652 23 353 1.6 6.4 0.00 0.00 0.00 57 1012.4
20260502223037 23 2 3.2 8.0 0.00 0.00 0.00 57 1012.8
20260502221532 23 10 3.2 8.0 0.00 0.00 0.00 58 1013.0
20260502220039 23 9 3.2 8.0 0.00 0.00 0.00 58 1013.2
20260502214531 23 307 1.6 8.0 0.00 0.00 0.00 58 1013.4
20260502213031 22 320 1.6 4.8 0.00 0.00 0.00 60 1013.6
20260502211535 22 343 0.0 6.4 0.00 0.00 0.00 60 1013.9
20260502210031 21 347 0.0 4.8 0.00 0.00 0.00 61 1014.1
20260502204528 21 358 3.2 6.4 0.00 0.00 0.00 60 1014.2
20260502203037 21 339 0.0 4.8 0.00 0.00 0.00 62 1014.4
20260502200035 17 235 1.6 8.0 0.00 0.00 0.00 72 1014.6
20260502193105 16 337 4.8 8.0 0.00 0.00 0.00 71 1015.3
20260502191607 17 337 4.8 8.0 0.00 0.00 0.00 71 1015.5